Hourly Data Report for January 16, 2022

BAGOTVILLE A
QUEBEC
Current Station Operator: DND

48°20'00.000" N
71°00'00.000" W
159.10 m
7060400
71727
YBG

Download Data

Hourly Data (January 2022)
Hourly Data Report for January 16, 2022
TIME
LST
Temp Definition
°C
Dew Point Definition
°C
Rel Hum Definition
%
Precip. Amount Definition
mm

Wind Dir Definition
10's deg

Wind Spd Definition
km/h
Visibility Definition
km
Stn Press Definition
kPa
Hmdx Definition


Wind Chill Definition


Weather Definition


00:00 -25.2 -29.4 65   27 13 40.2 100.65   -35 LegendNANA
01:00 -27.1 -30.6 70   29 11 40.2 100.67   -36 LegendNANA
02:00 -27.3 -30.6 71   29 8 40.2 100.70   -35 LegendNANA
03:00 -29.6 -32.6 73     0 40.2 100.65     LegendNANA
04:00 -30.3 -33.6 71     0 40.2 100.64     LegendNANA
05:00 -32.0 -35.3 70     0 40.2 100.63     LegendNANA
06:00 -31.9 -35.1 71   19 5 40.2 100.63   -38 LegendNANA
07:00 -31.9 -35.3 69     0 40.2 100.61     LegendNANA
08:00 -32.0 -35.5 69   18 8 40.2 100.57   -40 LegendNANA
09:00 -28.9 -32.2 71   19 8 40.2 100.55   -37 LegendNANA
10:00 -24.4 -29.0 63   14 5 40.2 100.52   -29 LegendNANA
11:00 -21.6 -28.0 53   8 8 40.2 100.43   -28 LegendNANA
12:00 -19.3 -27.3 45   9 4 40.2 100.36   -23 LegendNANA
13:00 -17.4 -25.3 46   9 5 40.2 100.24   -21 LegendNANA
14:00 -17.0 -24.9 47   10 8 40.2 100.17   -23 LegendNANA
15:00 -16.6 -24.7 46   15 4 40.2 100.13   -20 LegendNANA
16:00 -17.0 -24.0 51   13 4 40.2 100.06   -20 LegendNANA
17:00 -19.2 -23.8 64   18 5 40.2 100.02   -23 LegendNANA
18:00 -19.0 -24.6 58     0 40.2 99.93     LegendNANA
19:00 -18.3 -23.9 58   12 8 40.2 99.95   -24 LegendNANA
20:00 -18.5 -22.9 65     0 40.2 99.96     LegendNANA
21:00 -20.3 -23.3 75   18 4 40.2 99.88   -24 LegendNANA
22:00 -21.3 -24.2 75   11 9 40.2 99.79   -28 LegendNANA
23:00 -19.9 -22.9 75   10 8 40.2 99.78   -26 LegendNANA

Notes on Data Quality.

Legend

  • E = Estimated
  • M = Missing
  • NA = Not Available*
  • [empty] = Indicates an unobserved value
Date modified: